Location: Moscow
(55.7500°N, 37.5830°E)
Time: 21:09:23
(UTC+03:00)

Vanguard 3 - Visible Passes

Search period start: 06 December 2021 00:00
Search period end: 16 December 2021 00:00
Orbit: 508 x 3260 km, 33.4° (Epoch: 05 December)

Date Brightness Start Highest point End Pass type
(mag) Time Alt. Az. Time Alt. Az. Time Alt. Az.
06 Dec 11.0 02:58:02 22° S 03:02:25 24° SSE 03:15:12 10° ESE visible
06 Dec 10.8 05:02:35 16° SW 05:15:19 32° S 05:28:26 10° ESE visible
06 Dec 10.8 07:13:39 10° WSW 07:27:55 28° SSW 07:38:42 10° SSE visible
07 Dec 11.2 01:48:03 18° SE 01:48:03 18° SE 01:58:04 10° ESE visible
07 Dec 10.8 03:52:36 25° SSW 03:59:39 30° SSE 04:13:35 10° ESE visible
07 Dec 10.7 05:57:08 10° WSW 06:12:43 32° S 06:25:18 10° SE visible
08 Dec 10.9 02:42:31 26° SSE 02:44:06 26° SSE 02:57:48 10° ESE visible
08 Dec 10.7 04:47:03 22° SW 04:57:06 34° S 05:11:06 10° ESE visible
08 Dec 10.8 06:55:09 10° WSW 07:09:52 29° SSW 07:21:26 10° SSE visible
09 Dec 11.1 01:32:23 19° SE 01:32:23 19° SE 01:40:42 10° ESE visible
09 Dec 10.7 03:36:55 29° S 03:41:21 32° SSE 03:56:05 10° ESE visible
09 Dec 10.7 05:41:27 16° WSW 05:54:32 33° S 06:07:57 10° SE visible
09 Dec 11.0 07:54:21 10° WSW 08:06:35 22° SW 08:16:26 10° S visible
10 Dec 10.8 02:26:44 27° SSE 02:26:44 27° SSE 02:40:10 10° ESE visible
10 Dec 10.7 04:31:15 27° SSW 04:38:49 34° S 04:53:35 10° ESE visible
10 Dec 10.8 06:36:48 10° WSW 06:51:42 29° SSW 07:03:58 10° SSE visible
11 Dec 11.2 01:16:30 18° ESE 01:16:30 18° ESE 01:23:02 10° ESE visible
11 Dec 10.6 03:21:01 32° S 03:23:00 33° SSE 03:38:24 10° ESE visible
11 Dec 10.7 05:25:33 20° SW 05:36:16 33° SSW 05:50:22 10° SE visible
11 Dec 11.0 07:36:06 10° WSW 07:48:25 21° SW 07:58:44 10° S visible
12 Dec 10.8 02:10:45 27° SE 02:10:45 27° SE 02:22:18 10° ESE visible
12 Dec 10.6 04:15:17 31° SSW 04:20:28 35° S 04:35:52 10° SE visible
12 Dec 10.9 06:19:48 12° WSW 06:33:26 28° SSW 06:46:17 10° SSE visible
13 Dec 11.2 01:00:29 16° ESE 01:00:29 16° ESE 01:05:07 10° ESE visible
13 Dec 10.6 03:05:00 34° SSE 03:05:00 34° SSE 03:20:30 10° ESE visible
13 Dec 10.7 05:09:31 24° SW 05:17:55 33° SSW 05:32:36 10° SE visible
13 Dec 11.1 07:18:02 10° WSW 07:30:10 21° SW 07:40:46 10° S visible
14 Dec 10.9 01:54:43 26° SE 01:54:43 26° SE 02:04:14 10° ESE visible
14 Dec 10.5 03:59:14 33° SSW 04:02:06 35° S 04:17:57 10° SE visible
14 Dec 10.9 06:03:45 16° WSW 06:15:06 27° SSW 06:28:21 10° SSE visible
15 Dec 11.3 00:44:25 14° ESE 00:44:25 14° ESE 00:46:58 10° ESE visible
15 Dec 10.6 02:48:56 33° SSE 02:48:56 33° SSE 03:02:24 10° ESE visible
15 Dec 10.6 04:53:28 27° SW 04:59:33 32° SSW 05:14:37 10° SE visible
15 Dec 11.1 07:00:10 10° WSW 07:11:49 19° SW 07:22:29 10° S visible
